This is the latest recevied weather packets stored in our database for station/object LX0WX-13. If no packets are shown the sender has not sent any weather packets the latest 10 day(s).
| Time | Temp. | Humidity | Pressure | Rain* | Wind** | Luminosity | Snow |
|---|---|---|---|---|---|---|---|
| 1777699863 | 13.89° C | 39% | 1017.8 hPa | 0 mm | - | - | - |
| 1777699563 | 14.44° C | 36% | 1017.7 hPa | 0 mm | - | - | - |
| 1777699263 | 15° C | 36% | 1017.7 hPa | 0 mm | - | - | - |
| 1777698963 | 15° C | 35% | 1017.5 hPa | 0 mm | - | - | - |
| 1777698663 | 15.56° C | 36% | 1017.3 hPa | 0 mm | - | - | - |
| 1777698363 | 15° C | 38% | 1017.3 hPa | 0 mm | - | - | - |
| 1777698063 | 14.44° C | 38% | 1017.2 hPa | 0 mm | - | - | - |
| 1777697763 | 13.89° C | 41% | 1017.1 hPa | 0 mm | - | - | - |
| 1777697463 | 12.78° C | 43% | 1017.1 hPa | 0 mm | - | - | - |
| 1777697163 | 12.22° C | 44% | 1017.1 hPa | 0 mm | - | - | - |
| 1777696863 | 11.11° C | 44% | 1017 hPa | 0 mm | - | - | - |
| 1777696563 | 11.11° C | 44% | 1017.1 hPa | 0 mm | - | - | - |
| 1777696263 | 10.56° C | 44% | 1017.2 hPa | 0 mm | - | - | - |
| 1777695963 | 10.56° C | 44% | 1017 hPa | 0 mm | - | - | - |
| 1777695663 | 10.56° C | 44% | 1017.1 hPa | 0 mm | - | - | - |
| 1777695363 | 10.56° C | 43% | 1016.9 hPa | 0 mm | - | - | - |
| 1777695063 | 10.56° C | 44% | 1016.9 hPa | 0 mm | - | - | - |
| 1777694763 | 10.56° C | 44% | 1017.1 hPa | 0 mm | - | - | - |
| 1777694463 | 10° C | 44% | 1017.1 hPa | 0 mm | - | - | - |
| 1777694163 | 10° C | 44% | 1017.1 hPa | 0 mm | - | - | - |
| 1777693863 | 10° C | 45% | 1017 hPa | 0 mm | - | - | - |
| 1777693563 | 10° C | 44% | 1017.1 hPa | 0 mm | - | - | - |
| 1777693263 | 10° C | 43% | 1017.1 hPa | 0 mm | - | - | - |
| 1777692963 | 10.56° C | 43% | 1017.3 hPa | 0 mm | - | - | - |
| 1777692663 | 10.56° C | 43% | 1017.4 hPa | 0 mm | - | - | - |
* Rain latest hour (hover to see other rain measurements)
** Current wind speed in m/s (hover to see current wind gust speed)